Wind_Speed
13 14 14 16 17 18 18 18 17 17 17 17 17 17 19 20 23 25 27 30 32 34 36 39 42 45 48 50 51 52 54 55 56 56 55 55 54 53 50 49 49 48 46 45
10 11 12 13 13 13 14 13 12 11 11 12 12 11 13 15 18 20 22 25 27 30 32 35 38 43 45 47 48 49 50 51 53 55 55 54 54 53 51 49 49 48 47 47
8 9 10 10 10 11 11 11 10 9 9 9 9 8 9 10 12 14 17 20 22 24 26 27 31 35 40 43 45 47 49 49 49 50 51 53 54 53 52 50 48 48 48 48
6 7 7 8 9 9 9 9 9 9 8 8 8 6 6 8 9 10 12 13 14 16 17 19 22 27 33 36 39 43 46 48 47 47 48 50 51 51 51 50 48 48 46 46
6 5 5 6 7 8 8 8 8 8 7 7 7 6 6 7 7 8 8 10 9 12 13 15 17 22 27 30 32 36 39 41 43 44 46 47 48 49 50 49 47 46 45 44
4 4 4 5 6 7 6 6 6 6 6 6 6 5 4 5 5 4 4 5 6 7 8 11 14 17 21 25 29 31 34 36 37 39 41 44 45 46 47 47 46 45 44 44
3 3 3 4 5 6 5 5 5 4 4 4 4 3 2 2 3 3 3 3 3 2 4 6 9 12 16 20 24 27 30 33 34 35 37 39 41 44 45 46 46 45 44 44
3 3 3 3 4 4 4 4 4 3 3 3 2 1 1 2 2 2 2 3 2 1 2 3 5 7 10 13 16 20 24 27 30 31 32 34 37 40 42 43 44 42 42 41
4 4 3 2 3 3 4 3 2 3 2 2 2 1 1 2 2 2 2 3 3 2 1 1 2 4 7 10 11 14 17 20 23 26 28 32 34 36 37 38 40 41 40 39
3 3 2 2 3 3 4 3 2 2 2 1 1 1 2 1 1 2 2 3 4 4 3 3 2 2 4 6 7 9 10 13 16 19 23 27 31 33 34 35 37 39 39 39
2 2 2 2 3 4 4 3 3 2 2 1 0 1 2 1 1 1 1 1 2 4 4 5 5 4 3 2 3 5 7 8 10 13 16 20 25 29 32 33 33 36 37 37
1 1 2 2 2 3 4 4 3 3 2 1 1 2 2 1 1 1 1 2 2 3 4 4 4 4 4 3 2 3 4 6 7 10 11 12 15 20 25 27 29 31 33 34
1 1 1 1 2 3 4 4 4 3 2 1 0 1 1 1 1 2 2 2 3 3 4 4 4 3 2 2 1 1 3 4 5 6 7 9 11 14 19 22 25 27 28 30
2 2 1 1 1 2 3 3 3 3 3 1 1 1 1 1 1 2 2 2 3 3 3 3 4 3 2 2 2 1 1 2 3 4 5 7 9 12 15 17 21 25 27 28
2 3 2 1 2 2 2 3 3 2 2 1 1 1 1 1 1 1 1 2 2 1 2 2 3 3 3 3 3 3 2 2 3 4 5 7 8 11 13 16 19 23 26 29
2 2 1 1 1 2 2 2 2 2 1 1 1 1 1 2 1 1 1 1 0 2 2 3 3 3 3 4 4 4 4 5 6 6 7 8 10 11 13 16 19 22 26 29
1 1 1 1 1 1 1 2 2 1 1 1 1 0 1 2 2 2 2 2 2 3 3 3 4 5 5 5 5 5 5 6 7 8 9 11 13 14 15 18 20 23 25 28
3 3 2 1 1 1 1 2 2 2 2 2 1 0 1 2 2 3 3 3 3 3 4 4 5 5 6 6 7 8 8 9 10 11 12 14 16 18 19 20 23 25 27 29
4 4 3 3 3 2 2 2 2 2 2 2 1 1 2 2 3 3 4 4 4 5 6 6 7 7 7 7 9 10 11 12 13 14 16 17 19 21 22 23 25 27 29 31
6 6 5 5 4 4 3 4 4 4 4 4 3 3 3 4 4 4 4 4 4 5 7 7 8 8 8 9 10 12 13 15 16 17 19 20 21 22 24 25 27 29 32 34
8 8 7 7 7 6 6 6 6 6 6 6 5 5 5 5 5 5 5 5 5 6 7 8 9 9 10 11 12 14 16 17 19 20 22 23 23 25 27 29 31 33 34 35
10 10 10 10 9 9 8 8 7 6 6 6 6 6 6 6 6 6 7 7 7 8 9 10 10 11 13 14 15 17 18 20 21 23 24 26 27 28 30 32 33 35 37 37
13 12 12 12 12 11 11 10 9 8 7 7 6 7 7 7 7 8 9 10 10 10 11 11 12 13 15 17 18 20 21 23 24 25 27 28 29 30 32 33 35 37 38 39
15 15 15 15 15 14 13 12 12 11 10 10 10 10 10 10 10 11 11 12 12 13 13 14 15 16 17 19 21 22 24 25 26 27 28 29 30 32 33 35 36 38 38 39
16 16 16 15 16 15 15 14 14 14 14 14 13 13 13 13 13 14 14 14 15 15 16 17 18 19 20 21 22 24 25 26 27 29 30 31 32 34 35 37 38 39 40 41
17 17 17 17 17 17 17 18 18 18 17 17 16 17 17 17 17 17 17 17 18 18 18 19 19 21 22 23 24 25 26 28 29 31 32 33 35 36 37 39 40 41 42 42
Wind_Direction
239 240 242 243 245 248 250 252 252 254 254 255 257 257 256 259 259 259 258 255 253 251 249 248 247 242 239 238 238 236 234 233 232 232 233 234 234 235 237 239 240 242 244 245
230 234 236 240 243 243 243 244 250 249 249 253 254 253 256 263 263 264 262 258 257 254 251 249 246 241 238 236 236 234 232 232 231 232 233 233 233 234 235 237 238 241 243 245
219 227 232 235 235 235 237 240 241 239 246 249 252 254 257 266 268 267 263 259 260 258 254 250 245 241 237 237 235 232 231 230 230 232 232 232 232 233 235 237 239 241 243 244
201 212 222 229 228 229 229 228 230 237 242 251 257 258 255 268 273 270 269 268 265 262 252 245 244 239 236 235 234 231 230 230 230 232 231 232 233 234 236 236 238 240 241 245
195 203 217 221 220 219 220 225 231 235 248 254 253 254 257 267 274 281 279 274 269 262 248 243 241 236 233 230 230 231 229 229 230 230 231 233 234 235 235 235 236 239 241 244
187 198 206 209 206 208 211 219 227 240 244 245 243 251 264 274 277 281 290 285 277 263 246 240 236 232 228 229 229 228 227 227 229 231 232 235 236 235 235 237 239 240 242 245
170 183 187 190 187 200 212 221 230 239 236 231 235 256 273 299 293 298 317 329 313 267 227 228 226 224 224 226 228 226 226 227 229 230 232 234 235 236 238 238 239 240 242 245
139 149 154 175 192 199 214 222 231 238 221 200 207 242 260 309 303 321 359 1 7 63 193 215 217 217 216 218 221 222 224 225 228 230 232 234 234 236 237 237 239 240 244 246
129 135 134 159 183 189 195 212 224 219 201 207 221 260 280 317 330 350 19 22 25 27 21 78 170 187 204 211 215 217 220 222 227 232 235 236 236 235 236 237 238 241 245 249
122 122 128 142 164 180 190 197 192 203 219 257 268 332 336 339 330 10 21 26 31 33 45 60 93 143 168 183 198 207 215 219 223 231 236 236 236 235 236 240 243 244 248 252
117 125 133 146 166 180 194 190 192 208 235 253 332 356 5 340 327 20 354 27 76 71 69 76 83 102 122 140 167 196 216 226 231 234 236 238 239 238 239 242 246 248 250 253
93 139 144 159 176 192 188 187 196 208 221 229 331 6 17 352 319 71 75 81 89 96 102 99 90 103 106 101 136 198 225 237 244 244 243 239 240 241 243 244 248 251 254 256
62 113 157 165 190 197 205 209 209 215 223 226 259 33 34 32 75 103 95 75 78 92 96 101 91 82 86 91 96 225 242 258 264 248 244 255 255 254 249 248 252 255 258 260
68 79 111 161 165 167 176 189 199 192 176 164 136 105 72 85 105 98 85 83 88 87 91 93 79 73 67 50 35 7 263 272 268 261 268 273 270 266 262 260 261 265 268 269
76 78 77 94 128 137 132 141 149 152 151 145 148 191 224 237 167 134 123 110 109 64 42 43 48 43 38 39 30 10 350 319 312 303 297 297 288 282 278 275 277 279 277 276
65 59 63 86 104 114 136 149 129 124 154 195 238 274 240 209 181 170 151 129 353 329 350 1 358 355 3 10 360 348 338 324 313 310 308 301 294 289 290 291 287 287 286 285
360 354 13 94 153 156 168 174 174 160 151 178 204 268 241 212 203 212 218 243 289 310 323 324 328 330 333 343 342 329 326 323 318 311 305 303 300 298 294 293 294 294 293 294
320 315 295 277 247 251 195 185 189 178 167 158 150 206 255 261 243 240 249 257 281 307 325 315 312 320 326 333 336 331 320 313 312 311 309 306 304 305 302 301 302 302 299 299
297 287 279 276 266 249 226 217 217 211 203 202 234 297 302 294 284 267 271 271 279 296 305 306 306 309 312 321 326 323 317 311 308 305 305 305 306 306 304 303 303 303 303 302
278 275 271 265 261 268 262 245 239 241 244 246 262 278 289 292 290 284 279 283 286 288 293 295 296 301 305 310 317 318 313 310 308 307 307 307 307 309 309 307 306 305 304 304
273 268 264 263 263 268 263 254 249 253 250 254 262 273 283 289 289 286 284 288 293 297 295 295 296 301 304 307 311 315 317 315 313 312 311 311 310 310 309 309 308 308 307 305
269 267 263 263 264 265 259 254 253 251 252 259 262 266 274 281 286 289 291 292 295 299 301 300 300 302 304 307 309 312 315 317 317 316 315 314 313 312 311 311 311 311 310 310
267 265 262 264 265 262 255 252 246 246 252 259 263 267 272 278 284 289 292 294 296 299 301 304 306 308 309 307 307 308 311 313 315 315 315 314 314 313 312 312 312 313 312 311
267 264 262 262 262 261 256 250 249 249 253 259 264 270 275 279 282 286 290 292 295 297 301 305 307 308 309 311 311 310 310 311 313 314 314 313 313 313 313 314 314 314 314 313
267 267 264 262 261 258 254 252 252 254 256 261 265 269 273 277 282 285 287 291 295 298 299 302 304 306 307 309 310 311 312 313 314 314 314 314 314 314 315 316 316 316 316 315
268 266 264 263 261 258 256 257 257 258 261 264 267 270 273 276 279 282 286 289 293 297 300 302 304 305 306 307 309 311 312 313 314 314 314 314 315 315 315 316 317 317 317 316
Height
5634 5637 5638 5640 5641 5643 5644 5645 5646 5647 5647 5648 5649 5649 5649 5648 5648 5649 5649 5650 5651 5652 5654 5655 5658 5662 5667 5673 5679 5685 5692 5699 5705 5712 5719 5725 5731 5736 5741 5746 5750 5754 5758 5762
5633 5634 5636 5637 5638 5640 5641 5642 5643 5644 5644 5645 5645 5646 5645 5644 5644 5644 5644 5644 5644 5644 5645 5646 5648 5651 5656 5662 5668 5674 5681 5688 5694 5701 5708 5714 5720 5725 5731 5736 5740 5745 5749 5752
5630 5633 5633 5635 5636 5637 5638 5640 5641 5642 5642 5642 5643 5644 5642 5642 5641 5640 5639 5638 5637 5637 5637 5638 5639 5642 5647 5652 5658 5664 5671 5678 5684 5691 5697 5703 5709 5715 5721 5726 5731 5735 5739 5743
5629 5631 5632 5633 5634 5635 5637 5638 5639 5640 5640 5641 5641 5641 5641 5640 5639 5637 5636 5634 5633 5631 5631 5632 5633 5636 5640 5644 5649 5656 5662 5668 5675 5681 5687 5694 5700 5707 5713 5717 5722 5726 5730 5733
5629 5630 5631 5632 5634 5634 5636 5637 5638 5638 5639 5639 5639 5639 5640 5638 5637 5636 5633 5632 5630 5628 5628 5628 5629 5631 5634 5638 5643 5648 5654 5660 5666 5672 5678 5684 5691 5697 5702 5707 5712 5716 5720 5724
5630 5630 5631 5632 5633 5634 5635 5637 5637 5638 5638 5639 5638 5638 5638 5637 5636 5634 5632 5630 5628 5626 5625 5625 5626 5627 5630 5633 5637 5642 5648 5654 5659 5664 5670 5675 5682 5687 5693 5698 5703 5707 5711 5715
5630 5631 5631 5632 5634 5635 5636 5637 5638 5638 5637 5638 5638 5637 5637 5636 5634 5633 5631 5629 5627 5625 5624 5624 5624 5625 5627 5630 5633 5638 5642 5647 5652 5657 5662 5667 5672 5678 5683 5689 5693 5698 5702 5706
5631 5632 5633 5633 5634 5635 5636 5637 5638 5638 5637 5638 5637 5637 5638 5636 5634 5633 5631 5629 5627 5626 5625 5624 5624 5625 5626 5628 5631 5634 5638 5642 5647 5650 5655 5659 5664 5669 5674 5679 5684 5689 5693 5696
5632 5634 5634 5634 5635 5636 5636 5637 5638 5638 5638 5638 5638 5638 5637 5636 5634 5633 5631 5630 5628 5627 5626 5625 5625 5625 5626 5628 5630 5632 5635 5638 5641 5645 5648 5652 5656 5661 5666 5671 5675 5679 5683 5686
5634 5635 5635 5635 5636 5636 5637 5637 5638 5639 5638 5638 5638 5638 5637 5636 5635 5633 5632 5630 5629 5628 5627 5626 5626 5626 5627 5627 5629 5631 5633 5635 5637 5639 5642 5645 5648 5653 5658 5662 5666 5670 5673 5676
5635 5636 5637 5637 5637 5637 5638 5639 5638 5639 5639 5639 5639 5641 5637 5636 5635 5634 5633 5631 5631 5630 5629 5628 5628 5627 5628 5628 5628 5630 5631 5632 5634 5635 5637 5640 5642 5645 5649 5653 5657 5660 5663 5666
5637 5637 5637 5637 5637 5637 5638 5639 5639 5640 5640 5640 5639 5642 5637 5636 5635 5635 5634 5632 5632 5631 5630 5630 5630 5629 5629 5629 5628 5629 5630 5630 5631 5633 5634 5636 5638 5640 5642 5646 5648 5651 5653 5655
5638 5638 5639 5639 5640 5640 5639 5640 5640 5641 5641 5640 5640 5642 5638 5637 5636 5635 5635 5634 5633 5632 5632 5632 5631 5630 5630 5629 5629 5628 5629 5629 5629 5630 5631 5632 5634 5635 5637 5639 5641 5643 5645 5646
5639 5639 5640 5640 5639 5639 5640 5640 5640 5641 5641 5641 5640 5640 5639 5638 5637 5636 5635 5635 5634 5634 5634 5633 5632 5632 5631 5630 5629 5629 5629 5629 5629 5629 5630 5630 5630 5631 5632 5633 5635 5635 5637 5637
5640 5640 5640 5640 5640 5640 5641 5641 5641 5641 5641 5642 5641 5640 5640 5639 5638 5637 5636 5636 5636 5635 5635 5634 5633 5632 5631 5630 5630 5629 5629 5629 5628 5628 5628 5627 5627 5628 5628 5628 5628 5628 5628 5628
5641 5641 5641 5641 5641 5641 5641 5642 5642 5642 5642 5642 5641 5641 5640 5639 5638 5638 5637 5637 5636 5636 5635 5634 5633 5633 5632 5631 5630 5629 5628 5628 5627 5627 5626 5625 5624 5624 5624 5623 5622 5622 5621 5620
5642 5642 5642 5642 5642 5642 5643 5643 5642 5642 5642 5642 5642 5642 5640 5640 5639 5638 5638 5637 5636 5636 5635 5634 5633 5632 5632 5631 5629 5629 5628 5627 5626 5625 5624 5623 5621 5620 5619 5618 5617 5616 5614 5612
5643 5642 5642 5642 5643 5643 5645 5643 5643 5643 5643 5643 5642 5642 5641 5640 5639 5638 5638 5637 5636 5636 5635 5634 5633 5632 5631 5630 5629 5627 5626 5625 5624 5623 5621 5620 5618 5616 5614 5613 5611 5609 5606 5604
5643 5642 5642 5643 5643 5643 5644 5643 5643 5643 5643 5643 5642 5642 5641 5640 5639 5638 5638 5637 5636 5635 5634 5633 5632 5631 5630 5629 5627 5626 5624 5623 5621 5620 5618 5616 5614 5612 5610 5607 5604 5601 5598 5595
5642 5642 5643 5642 5642 5643 5644 5643 5642 5644 5643 5643 5642 5641 5640 5639 5639 5638 5637 5636 5635 5634 5633 5632 5631 5630 5629 5627 5626 5624 5622 5620 5618 5616 5614 5611 5609 5606 5603 5601 5598 5594 5590 5586
5642 5642 5642 5642 5641 5642 5643 5642 5642 5643 5643 5641 5640 5640 5639 5638 5638 5637 5636 5635 5633 5632 5631 5630 5629 5627 5626 5625 5623 5621 5619 5616 5614 5611 5608 5605 5603 5600 5597 5594 5591 5587 5582 5578
5640 5640 5640 5640 5641 5643 5641 5640 5641 5642 5640 5640 5639 5638 5638 5637 5636 5635 5634 5633 5632 5631 5629 5628 5626 5625 5623 5621 5619 5617 5615 5612 5609 5606 5603 5600 5597 5593 5590 5586 5582 5578 5573 5568
5638 5639 5638 5639 5641 5639 5638 5638 5639 5639 5639 5638 5638 5637 5636 5636 5635 5634 5632 5631 5630 5628 5627 5625 5623 5621 5619 5617 5615 5613 5610 5607 5604 5601 5598 5594 5591 5587 5583 5578 5574 5569 5563 5558
5636 5635 5635 5635 5636 5636 5636 5636 5636 5636 5636 5636 5636 5635 5635 5634 5633 5632 5630 5629 5627 5625 5624 5622 5620 5618 5616 5613 5611 5608 5605 5602 5599 5595 5592 5588 5583 5579 5574 5569 5564 5559 5554 5548
5632 5631 5631 5632 5633 5632 5632 5632 5633 5633 5633 5634 5633 5633 5632 5631 5630 5629 5628 5626 5624 5622 5620 5618 5616 5614 5612 5609 5606 5603 5600 5597 5593 5589 5585 5581 5576 5571 5566 5560 5555 5549 5544 5538
5628 5627 5627 5628 5628 5628 5629 5628 5629 5629 5629 5629 5629 5629 5628 5627 5626 5625 5624 5622 5620 5618 5616 5614 5612 5609 5607 5604 5601 5598 5594 5591 5587 5583 5578 5574 5569 5563 5558 5552 5546 5540 5534 5529